Weather History for EGUW - September, 2012

Change the Weather History Date:

Monday, September 3, 2012

  Actual Average Record
Temperature  
Mean Temperature 62 °F -  
Max Temperature 74 °F - - ()
Min Temperature 51 °F - - ()
Degree Days  
Heating Degree Days 2    
Growing Degree Days 12 (Base 50)    
Moisture  
Dew Point 55 °F    
Average Humidity 79    
Maximum Humidity 100    
Minimum Humidity 41    
Precipitation  
Precipitation 0.01 in - - ()
Sea Level Pressure  
Sea Level Pressure 30.27 in    
Wind  
Wind Speed 5 mph ()    
Max Wind Speed 8 mph    
Max Gust Speed -    
Visibility 5.6 miles    
Events Fog    
T = Trace of Precipitation, MM = Missing Value Source: Averaged Metar Reports

Daily Weather History Graph

Daily Weather History Graph

Search for Another Location

Airport or City:

Trip Planner

Search our weather history database for the weather conditions in past years. The results will help you decide how hot, cold, wet, or windy it might be!

Date:

Astronomy

Sep. 03, 2012 Rise Set
Actual Time 6:11 AM BST 7:38 PM BST
Civil Twilight 5:36 AM BST 8:13 PM BST
Nautical Twilight 4:53 AM BST 8:56 PM BST
Astronomical Twilight 4:05 AM BST 9:43 PM BST
Moon 8:15 PM BST 9:35 AM BST
Length of Visible Light 14h 36m
Length of Day
13h 26m
Waning Gibbous, 91% of the Moon is Illuminated
Sep 3
Waning Gibbous
Sep 8
Last Quarter
Sep 16
New
Sep 22
First Quarter
Sep 30
Full

Hourly Weather History & Observations

Time (BST) Temp. Dew Point Humidity Pressure Visibility Wind Dir Wind Speed Gust Speed Precip Events Conditions
12:50 AM 56 °F 56 °F 100% 30.29 in 0 mi WSW 5.8 mph - - Fog Partial Fog
12:50 AM 57.2 °F 57.2 °F 100% 30.27 in 0.5 mi WSW 5.8 mph - N/A Fog Fog
1:50 AM 55.4 °F 55.4 °F 100% 30.27 in 0.1 mi West 4.6 mph - N/A Fog Fog
2:50 AM 55.4 °F 55.4 °F 100% 30.27 in 0.1 mi West 4.6 mph - N/A Fog Fog
3:50 AM 53 °F 53 °F 100% 30.29 in 0 mi West 3.5 mph - - Fog Partial Fog
3:50 AM 53.6 °F 53.6 °F 100% 30.27 in 0.5 mi West 3.5 mph - N/A Fog Fog
4:50 AM 53.6 °F 53.6 °F 100% 30.27 in - NNW 5.8 mph - N/A   Clear
5:50 AM 51.8 °F 51.8 °F 100% 30.27 in - NW 5.8 mph - N/A   Clear
6:50 AM 53 °F 52 °F 95% 30.30 in 9 mi NW 6.9 mph - -   Partly Cloudy
6:50 AM 53.6 °F 51.8 °F 94% 30.27 in - NW 6.9 mph - N/A   Clear
7:50 AM 53.6 °F 53.6 °F 100% 30.30 in - NW 4.6 mph - N/A   Clear
8:50 AM 57.2 °F 53.6 °F 88% 30.30 in 6.2 mi NNW 4.6 mph - N/A   Mostly Cloudy
9:50 AM 60 °F 55 °F 80% 30.31 in 19 mi NNW 6.9 mph - -   Scattered Clouds
9:50 AM 60.8 °F 55.4 °F 82% 30.30 in 6.2 mi NNW 6.9 mph - N/A   Scattered Clouds
11:50 AM 66.2 °F 57.2 °F 73% 30.30 in 6.2 mi NW 5.8 mph - N/A   Scattered Clouds
12:50 PM 69 °F 55 °F 52% 30.30 in 25 mi NW 6.9 mph - -   Scattered Clouds
12:50 PM 69.8 °F 55.4 °F 60% 30.30 in 6.2 mi NW 6.9 mph - N/A   Partly Cloudy
1:50 PM 69.8 °F 53.6 °F 56% 30.27 in 6.2 mi West 4.6 mph - N/A   Partly Cloudy
2:50 PM 73.4 °F 50.0 °F 44% 30.27 in 6.2 mi West 5.8 mph - N/A   Partly Cloudy
3:50 PM 73 °F 54 °F 41% 30.26 in 31 mi WNW 5.8 mph - -   Scattered Clouds
3:50 PM 73.4 °F 53.6 °F 50% 30.24 in 6.2 mi WNW 5.8 mph - N/A   Partly Cloudy
4:50 PM 73.4 °F 55.4 °F 53% 30.24 in - NW 4.6 mph - N/A   Clear
5:50 PM 71.6 °F 57.2 °F 60% 30.24 in - NNW 3.5 mph - N/A   Clear
6:50 PM 69 °F 53 °F 47% 30.25 in 16 mi North 3.5 mph - -   Clear
6:50 PM 69.8 °F 53.6 °F 56% 30.24 in - North 3.5 mph - N/A   Clear
7:50 PM 64.4 °F 57.2 °F 77% 30.24 in - SE 8.1 mph - N/A   Clear
8:50 PM 60.8 °F 57.2 °F 88% 30.24 in - SSE 6.9 mph - N/A   Clear
9:50 PM 60 °F 57 °F 88% 30.26 in 9 mi SSE 6.9 mph - -   Clear
9:50 PM 60.8 °F 57.2 °F 88% 30.24 in - SSE 6.9 mph - N/A   Clear
10:50 PM 60.8 °F 57.2 °F 88% 30.24 in - SSE 8.1 mph - N/A   Clear
11:50 PM 59.0 °F 57.2 °F 94% 30.24 in 2.8 mi SSW 3.5 mph - N/A   Partly Cloudy